This is the latest recevied weather packets stored in our database for station/object OK2JF-6. If no packets are shown the sender has not sent any weather packets the latest 10 day(s).
| Time | Temp. | Humidity | Pressure | Rain* | Wind** | Luminosity | Snow |
|---|---|---|---|---|---|---|---|
| 1777899258 | 23.33° C | 45% | 1085.9 hPa | 0 mm | - | 381 W/m² | - |
| 1777898883 | 23.33° C | 44% | 1085.8 hPa | 0 mm | - | 269 W/m² | - |
| 1777898717 | 23.33° C | 44% | 1086 hPa | 0 mm | - | 311 W/m² | - |
| 1777897743 | 23.33° C | 45% | 1086.2 hPa | 0 mm | - | 261 W/m² | - |
| 1777897383 | 22.78° C | 46% | 1086.4 hPa | 0 mm | - | 323 W/m² | - |
| 1777897323 | 22.78° C | 46% | 1086.3 hPa | 0 mm | - | 350 W/m² | - |
| 1777897264 | 22.78° C | 45% | 1086 hPa | 0 mm | - | 329 W/m² | - |
| 1777896783 | 23.33° C | 44% | 1086.4 hPa | 0 mm | - | 173 W/m² | - |
| 1777895763 | 22.78° C | 44% | 1086.2 hPa | 0 mm | - | 388 W/m² | - |
| 1777895343 | 22.78° C | 43% | 1086.3 hPa | 0 mm | - | 395 W/m² | - |
| 1777895283 | 22.78° C | 43% | 1086.8 hPa | 0 mm | - | 360 W/m² | - |
| 1777895117 | 23.33° C | 43% | 1086.4 hPa | 0 mm | - | 394 W/m² | - |
| 1777894623 | 23.33° C | 42% | 1086.2 hPa | 0 mm | - | 426 W/m² | - |
| 1777894503 | 23.33° C | 43% | 1086.3 hPa | 0 mm | - | 480 W/m² | - |
| 1777894203 | 22.78° C | 43% | 1086.6 hPa | 0 mm | - | 428 W/m² | - |
| 1777894143 | 22.78° C | 43% | 1086.4 hPa | 0 mm | - | 328 W/m² | - |
| 1777894097 | 22.78° C | 43% | 1086.4 hPa | 0 mm | - | 331 W/m² | - |
| 1777894023 | 22.78° C | 43% | 1086.4 hPa | 0 mm | - | 496 W/m² | - |
| 1777893903 | 22.78° C | 43% | 1086.6 hPa | 0 mm | - | 242 W/m² | - |
| 1777893843 | 22.78° C | 43% | 1086.5 hPa | 0 mm | - | 283 W/m² | - |
| 1777892824 | 23.33° C | 43% | 1086.5 hPa | 0 mm | - | 398 W/m² | - |
| 1777892583 | 22.78° C | 43% | 1086.6 hPa | 0 mm | - | 468 W/m² | - |
| 1777891923 | 22.78° C | 44% | 1086.6 hPa | 0 mm | - | 420 W/m² | - |
| 1777891804 | 22.78° C | 44% | 1086.5 hPa | 0 mm | - | 419 W/m² | - |
| 1777891503 | 22.78° C | 44% | 1086.5 hPa | 0 mm | - | 396 W/m² | - |
* Rain latest hour (hover to see other rain measurements)
** Current wind speed in m/s (hover to see current wind gust speed)